Location: Melbourne
(37.8666°S, 145.1333°E)
Time: 18:19:10
(UTC+11:00)

Iridium 21 - Visible Passes

Search period start: 19 December 2014 00:00
Search period end: 29 December 2014 00:00
Orbit: 776 x 779 km, 86.4° (Epoch: 18 December)

Date Brightness Start Highest point End Pass type
(mag) Time Alt. Az. Time Alt. Az. Time Alt. Az.
19 Dec 6.2 00:33:47 43° W 00:34:05 44° W 00:39:08 10° SSW visible
20 Dec 5.4 00:00:11 78° NW 00:00:30 83° W 00:05:49 10° S visible
20 Dec 5.7 23:26:34 50° ENE 23:27:02 52° E 23:32:09 10° SSE visible
21 Dec 7.6 01:07:01 16° W 01:08:04 17° WSW 01:11:22 10° SW visible
21 Dec 6.6 22:52:56 27° E 22:53:41 28° E 22:58:07 10° SSE visible
22 Dec 6.8 00:33:24 29° W 00:34:16 30° W 00:38:54 10° SSW visible
22 Dec 7.3 22:19:18 14° E 22:20:28 15° ESE 22:23:22 10° SE visible
22 Dec 5.9 23:59:45 51° WNW 00:00:36 57° W 00:05:48 10° S visible
23 Dec 5.4 23:26:06 59° NNE 23:27:03 77° E 23:32:21 10° S visible
24 Dec 8.0 01:06:59 10° W 01:08:23 11° WSW 01:09:47 10° WSW visible
24 Dec 6.1 22:52:26 35° ENE 22:53:38 40° E 22:58:33 10° SSE visible
25 Dec 7.4 00:32:53 18° WNW 00:34:29 21° WSW 00:38:26 10° SSW visible
25 Dec 6.9 22:18:46 19° ENE 22:20:20 22° E 22:24:17 10° SSE visible
25 Dec 6.6 23:59:13 32° WNW 00:00:44 39° W 00:05:40 10° SSW visible
26 Dec 7.5 21:45:31 10° E 21:47:09 11° ESE 21:48:47 10° ESE visible
26 Dec 5.6 23:25:31 45° NNW 23:27:06 73° W 23:32:24 10° S visible
27 Dec 5.6 22:51:48 38° NNE 22:53:37 60° E 22:58:49 10° S visible
28 Dec 7.9 00:32:15 11° WNW 00:34:45 14° WSW 00:37:35 10° SW visible
28 Dec 6.4 22:18:04 23° NE 22:20:14 32° E 22:24:51 10° SSE visible
28 Dec 7.1 23:58:31 19° WNW 00:00:00 25° W 00:00:00 25° W visible
